Wind_Speed
19 18 18 17 16 13 13 12 12 14 13 13 12 11 11 12 12 9 6 5 7 7 6 5 9 10 14 25 25 25 27 15 22 24 19 16 12 11 11 9 8 9 10 9 11
20 21 20 19 17 16 14 13 13 14 13 13 13 13 13 14 14 10 7 6 7 7 6 5 9 18 11 25 29 20 15 17 20 22 20 15 12 11 11 8 8 8 8 9 10
22 22 22 21 19 18 16 14 14 13 12 13 14 14 15 16 15 12 10 8 7 6 8 3 13 7 17 18 18 11 12 14 17 21 20 17 12 16 8 7 8 9 7 7 9
22 24 23 23 21 19 18 16 15 13 12 12 15 17 18 18 20 15 11 10 8 7 12 8 14 13 24 20 10 4 11 11 13 17 21 17 17 11 8 6 6 8 7 7 8
23 24 26 23 23 21 20 18 17 14 13 13 17 18 20 19 16 13 15 11 10 11 12 18 7 15 15 13 5 6 9 11 7 13 15 20 14 10 9 7 5 5 5 5 7
23 24 27 26 23 22 21 20 19 16 13 14 17 20 21 19 20 16 14 13 13 14 12 11 13 3 8 2 5 6 11 13 9 10 13 16 15 18 11 11 8 4 4 3 5
21 24 26 29 26 23 23 22 20 18 15 15 18 21 21 19 20 17 16 15 15 13 17 4 15 10 16 4 9 6 8 16 16 13 12 11 22 19 15 11 11 13 9 4 2
22 19 25 28 29 24 24 23 22 21 17 17 19 22 24 27 21 18 16 17 17 14 15 15 18 3 10 6 11 9 17 20 21 17 17 12 20 15 17 16 15 13 14 13 8
23 21 18 27 29 27 25 25 23 23 20 18 21 23 26 24 22 21 18 20 19 14 21 21 1 6 16 3 20 23 24 14 18 17 12 13 20 18 14 15 17 18 16 14 14
23 25 21 18 28 29 26 27 25 25 23 21 21 24 21 20 23 21 21 22 22 21 25 15 14 10 21 19 29 20 16 9 18 12 10 18 19 18 15 14 16 15 16 15 14
24 24 26 22 22 29 29 29 29 30 28 21 22 25 30 29 27 22 21 24 25 25 22 10 14 10 15 15 12 4 9 10 13 12 17 13 18 15 15 15 15 14 15 12 14
27 27 27 27 25 25 29 31 32 29 27 28 22 28 32 31 27 24 25 26 26 25 18 7 13 4 14 9 10 11 16 11 16 13 21 15 19 15 11 12 14 12 15 15 16
28 30 29 27 30 28 28 31 29 30 29 29 23 26 27 27 28 26 24 23 27 26 13 8 2 2 6 1 7 4 15 1 10 13 13 15 16 12 10 12 12 11 13 15 16
28 31 33 31 29 31 33 30 32 32 33 31 30 28 36 32 32 27 26 24 29 24 15 11 9 5 7 4 4 7 3 5 4 4 9 9 16 16 16 14 13 12 15 15 15
25 27 31 33 31 34 36 33 33 35 36 32 32 27 30 31 27 29 29 28 26 19 16 7 12 10 11 5 6 4 3 4 7 20 15 15 5 9 11 13 16 17 15 18 21
29 30 33 37 36 36 34 36 38 39 38 21 33 35 38 35 32 28 30 29 26 19 18 16 9 12 11 10 11 9 12 20 23 20 4 3 8 9 16 13 15 18 23 18 9
34 36 38 41 44 41 39 45 44 46 28 22 36 38 36 37 36 30 33 31 30 26 22 19 16 17 11 9 8 3 10 1 20 12 8 7 14 6 5 11 12 13 13 14 17
37 40 43 47 51 51 47 47 50 44 38 18 33 37 37 38 36 33 34 33 31 24 18 21 18 19 14 20 12 4 7 14 12 13 4 6 10 7 8 6 12 16 13 16 9
38 39 40 44 52 59 56 56 52 44 41 18 23 33 41 41 35 33 35 31 27 28 21 18 17 12 14 12 12 12 13 10 7 14 11 4 1 4 6 9 14 6 15 11 8
32 33 33 38 43 47 56 58 52 44 37 27 22 31 42 42 41 33 34 33 28 27 28 14 12 15 15 10 13 14 5 8 10 8 13 3 6 2 11 7 2 10 9 12 11
26 26 27 27 30 47 58 59 52 45 40 30 32 29 37 38 39 33 31 32 30 26 35 24 14 11 17 18 9 9 12 25 17 16 5 8 11 9 9 7 7 6 5 12 9
23 21 20 25 31 45 60 57 52 36 48 44 42 29 32 32 36 29 29 30 32 31 37 29 16 18 20 16 17 11 9 5 11 5 15 13 5 8 2 14 8 12 13 14 6
20 27 23 22 30 43 53 45 46 24 46 51 49 40 29 31 34 29 29 26 26 34 36 33 27 21 15 17 15 12 8 19 16 18 17 10 12 11 6 6 15 15 5 3 6
22 26 8 19 28 36 48 42 33 25 26 52 49 43 37 32 30 32 27 26 30 30 34 40 24 21 13 13 16 18 19 15 9 24 11 13 13 15 15 9 9 6 3 4 8
18 20 21 20 29 49 39 40 29 28 34 44 52 48 41 34 32 30 28 25 35 37 36 38 28 19 15 22 15 12 13 15 6 3 13 9 7 10 8 7 10 8 6 7 10
27 33 27 27 33 48 32 27 22 23 45 56 57 54 48 38 29 28 30 31 35 41 39 40 29 22 31 17 15 15 12 16 14 9 7 8 17 22 17 17 20 14 11 12 13
22 20 23 34 36 47 30 29 19 23 20 26 52 52 49 39 38 36 30 25 31 39 40 45 33 21 13 20 18 20 13 12 12 12 10 12 17 22 21 24 23 19 14 14 14
Wind_Direction
266 259 257 251 248 248 256 258 262 259 243 223 209 187 180 171 167 145 122 137 121 133 109 87 73 48 309 326 59 33 69 48 35 30 46 64 78 115 134 126 120 115 100 94 87
263 263 257 257 250 249 247 250 254 258 247 224 208 191 178 175 166 149 141 150 129 141 129 113 78 304 292 47 67 51 48 55 38 40 40 54 81 107 126 118 106 113 108 104 98
260 259 259 253 251 246 245 244 250 255 249 222 207 193 179 174 165 157 153 149 128 131 127 103 72 236 33 70 54 50 44 45 40 37 40 44 77 90 117 129 111 102 101 92 93
260 253 255 254 251 246 244 242 242 251 245 223 207 194 181 176 172 161 159 146 134 128 123 148 30 346 36 60 11 59 44 45 39 38 45 43 51 78 148 144 125 106 113 103 84
264 250 246 251 250 246 244 240 239 243 237 219 207 197 185 182 176 164 158 152 135 134 124 80 47 57 44 15 289 12 27 24 24 51 45 46 53 72 83 106 150 140 114 103 92
263 254 243 241 247 244 244 239 234 233 233 216 208 201 186 176 173 170 165 151 142 144 160 64 48 137 64 295 341 44 23 35 61 47 55 54 59 66 70 68 84 126 167 124 86
270 249 244 238 239 241 239 239 235 231 228 215 208 203 185 178 177 171 167 152 147 149 124 206 130 102 182 343 6 14 49 45 40 34 40 45 59 50 61 64 63 68 81 111 108
269 262 244 238 235 236 235 239 234 229 224 215 208 200 187 172 179 176 166 152 148 138 118 132 114 245 332 169 95 220 92 15 12 21 53 65 68 56 51 60 64 66 66 61 65
265 263 260 239 236 232 231 233 232 228 222 213 210 199 195 180 173 180 172 157 149 137 117 112 225 212 101 70 56 50 60 341 1 1 45 72 63 58 52 51 63 67 65 63 60
260 255 259 256 236 231 232 227 230 226 221 214 209 200 188 187 181 184 178 164 149 138 134 136 317 352 83 29 41 29 81 357 352 360 40 68 64 64 75 71 68 69 70 64 57
253 252 248 251 247 232 229 226 224 223 218 209 206 194 192 188 181 189 181 169 152 150 144 47 342 83 73 56 40 334 123 30 16 66 85 75 58 71 74 74 72 72 72 63 52
253 246 243 241 242 239 230 229 227 232 224 215 206 208 193 189 181 188 190 176 160 157 124 193 254 50 73 52 256 64 56 46 53 89 75 60 39 50 57 67 73 68 72 64 64
252 248 243 239 235 234 236 231 228 227 220 220 212 205 202 189 183 188 192 181 168 155 149 221 231 91 101 243 288 110 69 277 49 55 70 69 32 33 48 62 59 54 73 67 56
252 247 241 237 237 231 230 232 228 223 218 215 212 204 198 189 187 183 191 189 178 165 161 222 184 216 143 253 66 102 93 90 220 10 48 72 39 67 76 63 52 44 57 73 72
253 249 243 235 233 231 232 231 226 223 221 215 211 206 201 195 191 186 188 193 183 183 178 166 246 228 186 257 212 354 63 256 252 138 173 106 9 55 56 54 53 55 64 53 39
261 256 248 240 236 232 227 221 220 220 215 220 212 207 202 190 188 189 193 194 183 196 175 165 235 238 185 243 216 192 187 247 100 134 144 302 155 23 28 44 55 60 53 56 18
262 259 254 248 240 236 230 222 216 218 198 216 214 208 201 196 191 195 193 197 188 192 199 197 203 236 205 198 172 186 271 228 105 102 124 19 106 151 54 17 51 53 50 48 53
267 265 259 253 245 234 225 218 216 212 198 208 220 208 200 196 199 198 194 200 195 183 198 196 202 217 190 149 223 280 208 125 140 124 62 70 118 133 1 356 36 50 45 67 27
274 268 261 252 243 240 226 215 209 206 199 196 223 210 200 200 199 204 202 205 200 182 179 213 206 235 203 182 157 241 269 72 80 98 98 133 59 157 3 39 66 7 26 54 69
269 261 254 254 243 229 214 207 201 195 174 173 219 212 202 200 199 200 202 207 205 190 154 201 219 210 222 207 212 184 144 137 123 80 120 99 116 137 25 81 39 67 343 353 29
257 254 246 242 223 205 198 193 184 176 184 190 207 207 202 201 201 205 207 203 206 187 149 158 207 212 226 209 182 156 80 150 149 158 182 137 163 251 303 9 56 77 355 312 357
250 241 236 224 216 201 185 170 171 169 180 181 178 195 200 197 200 197 209 205 205 183 164 164 174 221 215 208 161 210 168 271 272 150 94 178 178 257 337 176 158 161 227 251 341
240 231 220 217 202 196 172 160 160 171 190 183 170 178 186 193 202 186 209 207 216 198 188 156 178 199 206 215 209 202 193 209 227 193 137 262 177 202 301 300 203 222 226 293 334
239 239 224 195 193 176 170 156 155 181 186 185 181 169 169 190 203 187 198 204 203 194 194 169 175 198 208 197 208 220 172 255 183 178 136 244 259 279 285 272 250 253 279 322 321
195 171 179 178 188 173 177 174 170 196 165 187 180 171 172 181 198 194 186 195 217 196 191 181 176 177 189 213 210 215 188 204 249 323 198 194 266 205 215 280 274 280 300 312 314
208 187 184 156 176 179 169 196 204 187 185 184 180 173 173 173 189 199 182 213 215 200 190 182 165 220 147 169 181 201 203 185 179 161 133 145 193 228 259 277 290 284 299 312 326
212 193 159 166 174 178 176 189 199 162 220 184 187 180 172 173 179 185 199 208 220 204 192 186 163 187 187 184 191 180 183 204 195 200 174 198 237 253 260 272 275 285 301 306 317
Height
5887 5887 5888 5889 5891 5891 5892 5893 5893 5894 5896 5899 5900 5902 5904 5905 5906 5907 5907 5908 5907 5907 5907 5907 5907 5906 5895 5878 5890 5896 5892 5899 5894 5891 5888 5886 5887 5887 5888 5889 5890 5890 5890 5891 5891
5883 5884 5885 5886 5888 5889 5890 5890 5891 5892 5894 5897 5899 5901 5903 5905 5905 5906 5908 5908 5908 5908 5909 5908 5910 5898 5888 5888 5892 5902 5903 5903 5900 5897 5894 5892 5890 5890 5892 5893 5893 5894 5894 5893 5894
5880 5881 5882 5883 5885 5886 5887 5888 5889 5890 5892 5895 5897 5899 5901 5904 5905 5906 5907 5908 5908 5909 5911 5912 5909 5901 5899 5896 5895 5904 5907 5907 5905 5902 5899 5897 5894 5893 5895 5896 5897 5897 5897 5897 5896
5875 5876 5878 5880 5881 5883 5884 5886 5887 5887 5889 5893 5896 5898 5900 5902 5905 5905 5907 5908 5909 5910 5911 5913 5910 5908 5903 5895 5907 5910 5909 5909 5909 5906 5903 5901 5898 5898 5896 5898 5899 5899 5899 5899 5899
5870 5871 5873 5875 5877 5880 5881 5883 5884 5886 5888 5890 5893 5896 5898 5901 5905 5905 5906 5908 5909 5911 5912 5909 5914 5913 5910 5905 5889 5907 5911 5911 5910 5908 5907 5903 5902 5900 5899 5899 5900 5901 5901 5901 5901
5864 5866 5868 5870 5873 5876 5878 5880 5882 5883 5885 5888 5891 5894 5896 5900 5903 5904 5906 5908 5909 5911 5913 5913 5916 5919 5917 5916 5911 5912 5912 5912 5910 5910 5908 5907 5905 5902 5902 5902 5902 5902 5903 5903 5903
5859 5860 5862 5865 5868 5871 5875 5877 5879 5881 5883 5886 5888 5892 5896 5900 5902 5904 5906 5908 5909 5911 5911 5918 5916 5920 5910 5915 5914 5914 5914 5913 5911 5912 5911 5911 5906 5906 5906 5905 5905 5904 5904 5904 5905
5854 5855 5857 5860 5863 5867 5870 5873 5876 5878 5881 5884 5886 5890 5894 5895 5902 5903 5906 5909 5910 5913 5913 5916 5918 5915 5914 5916 5913 5910 5897 5912 5911 5912 5914 5916 5911 5911 5910 5908 5908 5907 5906 5906 5906
5849 5850 5852 5854 5858 5862 5865 5869 5872 5875 5878 5881 5884 5888 5891 5897 5901 5903 5906 5909 5912 5915 5917 5920 5907 5910 5918 5916 5913 5911 5909 5914 5914 5910 5915 5916 5912 5913 5913 5912 5910 5909 5909 5909 5909
5843 5845 5847 5850 5852 5856 5861 5864 5868 5871 5874 5878 5882 5887 5894 5898 5900 5902 5905 5908 5911 5915 5917 5917 5907 5908 5913 5916 5913 5913 5919 5921 5916 5915 5913 5912 5916 5917 5915 5914 5913 5912 5912 5912 5911
5837 5840 5842 5845 5848 5851 5856 5859 5863 5866 5869 5877 5879 5883 5887 5891 5897 5901 5904 5908 5909 5913 5915 5918 5918 5918 5920 5918 5923 5924 5913 5925 5921 5919 5917 5920 5920 5920 5918 5917 5916 5915 5915 5914 5914
5831 5833 5836 5840 5842 5846 5849 5852 5858 5864 5869 5872 5876 5878 5883 5889 5895 5899 5902 5906 5908 5912 5916 5920 5917 5925 5919 5922 5924 5930 5926 5927 5926 5924 5922 5922 5922 5922 5921 5919 5918 5918 5916 5916 5915
5824 5826 5830 5833 5836 5840 5844 5849 5855 5859 5865 5868 5874 5876 5883 5889 5893 5897 5901 5906 5908 5911 5915 5919 5919 5925 5928 5932 5929 5931 5927 5933 5930 5927 5926 5926 5926 5925 5924 5922 5920 5919 5918 5918 5917
5816 5819 5822 5826 5832 5833 5837 5843 5849 5854 5859 5865 5869 5872 5875 5883 5889 5894 5899 5904 5906 5911 5914 5922 5924 5927 5930 5931 5933 5932 5933 5932 5931 5928 5929 5928 5928 5927 5927 5925 5922 5921 5919 5918 5919
5808 5811 5815 5819 5824 5826 5833 5838 5844 5849 5853 5862 5866 5872 5877 5883 5891 5892 5896 5900 5904 5911 5915 5922 5925 5926 5930 5931 5933 5936 5936 5934 5922 5925 5923 5929 5933 5930 5929 5928 5926 5924 5922 5921 5920
5799 5802 5806 5810 5815 5819 5826 5829 5837 5843 5848 5858 5862 5865 5870 5878 5884 5891 5894 5898 5903 5910 5914 5921 5927 5926 5928 5931 5930 5931 5931 5918 5920 5924 5928 5931 5932 5932 5929 5929 5928 5926 5925 5926 5929
5788 5790 5794 5797 5803 5811 5817 5821 5828 5833 5851 5855 5856 5862 5870 5875 5881 5886 5891 5895 5898 5905 5911 5918 5924 5926 5927 5928 5931 5933 5933 5928 5926 5920 5931 5933 5929 5936 5934 5933 5931 5930 5930 5930 5930
5775 5777 5779 5782 5786 5795 5803 5811 5819 5833 5843 5853 5852 5860 5867 5873 5879 5883 5888 5892 5897 5903 5912 5916 5922 5923 5925 5927 5932 5930 5931 5927 5927 5934 5935 5935 5935 5935 5936 5935 5932 5932 5932 5932 5932
5760 5760 5762 5764 5768 5773 5786 5797 5816 5830 5843 5856 5852 5856 5863 5870 5877 5881 5886 5892 5897 5900 5911 5917 5920 5925 5925 5927 5931 5927 5929 5931 5920 5929 5934 5936 5936 5935 5935 5934 5935 5935 5933 5935 5936
5748 5748 5749 5749 5750 5755 5768 5792 5810 5824 5837 5844 5852 5852 5859 5865 5872 5878 5884 5889 5894 5900 5906 5918 5922 5924 5925 5928 5931 5931 5932 5932 5935 5937 5939 5937 5937 5937 5937 5938 5939 5938 5937 5935 5935
5738 5738 5737 5738 5739 5741 5755 5782 5803 5808 5821 5836 5848 5850 5856 5863 5869 5876 5882 5888 5893 5899 5903 5911 5923 5926 5925 5925 5931 5934 5934 5936 5937 5935 5938 5937 5937 5938 5939 5939 5940 5942 5941 5937 5935
5732 5732 5733 5732 5734 5740 5752 5774 5789 5800 5814 5825 5835 5851 5854 5862 5867 5876 5879 5885 5889 5896 5898 5905 5919 5924 5924 5925 5927 5935 5937 5939 5938 5940 5933 5939 5939 5937 5939 5942 5941 5940 5942 5939 5937
5727 5726 5728 5730 5732 5738 5757 5769 5777 5794 5805 5819 5827 5837 5852 5861 5865 5871 5877 5883 5886 5892 5898 5904 5912 5920 5923 5925 5927 5929 5935 5933 5936 5938 5940 5933 5939 5936 5937 5939 5940 5939 5940 5939 5937
5726 5723 5717 5728 5735 5746 5761 5762 5774 5787 5801 5814 5825 5835 5844 5858 5863 5867 5874 5880 5882 5889 5896 5902 5909 5916 5922 5925 5928 5928 5930 5929 5932 5936 5941 5936 5935 5935 5933 5936 5938 5938 5938 5937 5937
5720 5722 5724 5730 5738 5742 5748 5765 5774 5785 5792 5808 5818 5826 5838 5852 5860 5863 5872 5878 5877 5884 5890 5898 5904 5911 5910 5925 5926 5927 5930 5935 5932 5930 5937 5936 5935 5933 5932 5935 5935 5936 5935 5936 5936
5713 5714 5717 5724 5741 5751 5756 5766 5775 5783 5789 5798 5810 5820 5833 5844 5857 5861 5867 5871 5871 5878 5887 5895 5900 5902 5908 5919 5924 5928 5929 5932 5935 5938 5939 5939 5935 5930 5933 5934 5933 5935 5934 5934 5933
5714 5720 5721 5725 5740 5748 5754 5766 5774 5783 5792 5801 5809 5821 5828 5834 5840 5850 5862 5869 5869 5874 5884 5891 5897 5905 5906 5914 5919 5923 5928 5930 5932 5934 5938 5937 5930 5929 5932 5932 5932 5932 5933 5932 5931